CZ-4 DEB

Satellite information

Favourite Embed

Satellite Type and Status

DEBRISIN ORBIT

Key statistics

Satellite CZ-4 DEB at a glance.

Uptime

12886

Days in orbit

Revolutions

≈ 14.3

Per day

Orbit

SSO

Sun Synchronous Orbit

Inclination

98.5

Latest

Satellite identification and parameters

Extended collection of information and parameters for CZ-4 DEB.

Object identification

Identified? True

Debris? True

Object name: CZ-4 DEB

International designator: 1990-081CQ

Object number (NORAD): 23259

Object ID (CCSDS): 23259

Country: PEOPLES REPUBLIC OF CHINA (PRC)

Current information (Y/N): Y

RCS size: SMALL

Orbital parameters

Period: 100.427 minutes

Inclination: 98.5477 deg

SMA: 7156.924 km

Apoapsis: 791.275 km

Periapsis: 766.302 km

RAAN: 343.1639 deg

Eccentricy: 0.00174471

Argument of periapsis: 178.2856 deg

Mean anomaly: 181.8391 deg

Mean motion: 14.33881271 rev/day

Mean motion (dot): 0.00003407 rev/day2

B* drag term: 0.0012363149 1/REarth

Two-line elements (TLE)

Creation date: Dec. 14, 2025, 3:07 a.m.

Reference frame: TEME

Reference center: EARTH

Epoch: Dec. 13, 2025, 11:51 a.m. UTC

TLE line 0: 0 CZ-4 DEB

TLE line 1: 1 23259U 90081CQ 25347.49431975 .00003407 00000-0 12363-2 0 9993

TLE line 2: 2 23259 98.5477 343.1639 0017447 178.2856 181.8391 14.33881271783605

Live tracking on map

Real-time ground track for satellite CZ-4 DEB.

In-orbit conjunctions

A list of the most updated potential collisions computed for object CZ-4 DEB.

Target Orbit TCA Probability of collision Miss distance Type
METEOR 2-8 DEB LEO 2025-09-22 14:39:37 0.0001151612 171.0 (m) DEBRIS
COSMOS 2251 DEB LEO 2025-08-11 08:13:43 0.0002218592 209.0 (m) DEBRIS
CZ-6A DEB LEO 2025-06-14 20:09:11 0.0002261356 264.0 (m) DEBRIS
SL-8 R/B LEO 2025-01-10 10:12:45 0.0002444 229.0 (m) ROCKET BODY
COSMOS 2251 DEB LEO 2024-09-25 15:01:33 0.0006552195 569.0 (m) DEBRIS

Associated space launch

Chinese polar orbiting meteorological satellite

CZ-4 DEB was lifted into orbit during the mission ‘Long March 4A | Feng Yun 1B’, on board a Long March 4A space rocket.

The launch took place on Sept. 3, 1990, 12:53 a.m. from Launch Complex 7.

For more information about the launch, click the button.

Launch to space Long March 4A | Feng Yun 1B
Long March 4A | Feng Yun 1B

Agency: N/A

Status: Launch Successful

Launch date: Sept. 3, 1990, 12:53 a.m. UTC

Rocket: Long March 4A

Launch pad: Launch Complex 7

Location: Taiyuan Satellite Launch Center, People's Republic of China

...

Latest news about this satellite

There are no fresh news available about this satellite. Check back as we update our databases every day.


Newsletter sign-up

Weekly statistics, charts and insights to help you stay on top of the space industry.